When you browse on this site, cookies collect data to enhance your experience and personalize the content and advertising you see.
Visit our Privacy Policy to learn more. By continuing to use the site, you agree to this use of cookies and data.
  • In Portugal
  • List of Countries
  • For 7 days
  • Water Temperature
  • Satellite Maps
  • Weather Map
  • Weather Widgets
  • user-avatar
    Login

    Hourly Weather Salta

    Today, 15 December, Saturday

    Time Temperature Precipitation Wind Pressure Humidity
    00:00 +23°C° 1.1 mm 1 mps 652 mmHg 84%
    01:00 +23°C° 1.1 mm 1 mps 652 mmHg 84%
    02:00 +22°C° 0 mm 1 mps 652 mmHg 85%
    03:00 +22°C° 0.5 mm 1 mps 652 mmHg 85%
    04:00 +22°C° 0.5 mm 1 mps 652 mmHg 85%
    05:00 +22°C° 0.5 mm 1 mps 652 mmHg 86%
    06:00 +23°C° 0.4 mm 1 mps 653 mmHg 83%
    07:00 +23°C° 0.4 mm 2 mps 653 mmHg 81%
    08:00 +24°C° 0.4 mm 2 mps 654 mmHg 78%
    09:00 +24°C° 0.6 mm 2 mps 654 mmHg 77%
    10:00 +25°C° 0.6 mm 3 mps 654 mmHg 75%
    11:00 +25°C° 0.6 mm 3 mps 654 mmHg 73%
    12:00 +25°C° 0.6 mm 3 mps 653 mmHg 74%
    13:00 +25°C° 0.6 mm 3 mps 652 mmHg 74%
    14:00 +25°C° 0.6 mm 3 mps 652 mmHg 74%
    15:00 +25°C° 0.4 mm 2 mps 651 mmHg 74%
    16:00 +25°C° 0.4 mm 2 mps 651 mmHg 74%
    17:00 +25°C° 0.4 mm 2 mps 650 mmHg 75%
    18:00 +24°C° 0.4 mm 1 mps 651 mmHg 78%
    19:00 +23°C° 0.4 mm 1 mps 651 mmHg 82%
    20:00 +22°C° 0.4 mm 1 mps 651 mmHg 85%
    21:00 +22°C° 0.8 mm 1 mps 652 mmHg 85%
    22:00 +22°C° 0.8 mm 1 mps 652 mmHg 85%
    23:00 +22°C° 0.8 mm 1 mps 652 mmHg 85%

    Tomorrow, 16 December, Sunday

    Time Temperature Precipitation Wind Pressure Humidity
    00:00 +22°C° 0.2 mm 1 mps 652 mmHg 85%
    01:00 +22°C° 0.2 mm 1 mps 652 mmHg 85%
    02:00 +22°C° 0.2 mm 1 mps 651 mmHg 85%
    03:00 +22°C° 0 mm 1 mps 651 mmHg 86%
    04:00 +21°C° 0 mm 1 mps 651 mmHg 86%
    05:00 +21°C° 0 mm 1 mps 651 mmHg 86%
    06:00 +22°C° 0 mm 1 mps 652 mmHg 82%
    07:00 +23°C° 0 mm 1 mps 652 mmHg 78%
    08:00 +24°C° 0 mm 1 mps 653 mmHg 73%
    09:00 +25°C° 0.2 mm 2 mps 653 mmHg 68%
    10:00 +27°C° 0.2 mm 2 mps 653 mmHg 63%
    11:00 +28°C° 0.2 mm 2 mps 653 mmHg 58%
    12:00 +29°C° 0.1 mm 3 mps 652 mmHg 55%
    13:00 +30°C° 0.1 mm 3 mps 652 mmHg 52%
    14:00 +31°C° 0.1 mm 3 mps 651 mmHg 49%
    15:00 +30°C° 0.2 mm 3 mps 650 mmHg 51%
    16:00 +30°C° 0.2 mm 3 mps 650 mmHg 53%
    17:00 +29°C° 0.2 mm 3 mps 649 mmHg 56%
    18:00 +28°C° 0.3 mm 2 mps 649 mmHg 62%
    19:00 +26°C° 0.3 mm 2 mps 649 mmHg 68%
    20:00 +25°C° 0.3 mm 1 mps 649 mmHg 74%
    21:00 +24°C° 0.4 mm 1 mps 649 mmHg 76%
    22:00 +24°C° 0.4 mm 1 mps 650 mmHg 77%
    23:00 +23°C° 0.4 mm 1 mps 650 mmHg 78%

    Day after tomorrow, 17 December, Monday

    Time Temperature Precipitation Wind Pressure Humidity
    00:00 +23°C° 0.6 mm 1 mps 650 mmHg 78%
    01:00 +23°C° 0.6 mm 1 mps 649 mmHg 77%
    02:00 +23°C° 0.6 mm 1 mps 649 mmHg 76%
    03:00 +23°C° 0.2 mm 1 mps 649 mmHg 75%
    04:00 +23°C° 0.2 mm 1 mps 649 mmHg 75%
    05:00 +23°C° 0.2 mm 1 mps 649 mmHg 74%
    06:00 +24°C° 0.1 mm 1 mps 649 mmHg 70%
    07:00 +25°C° 0.1 mm 1 mps 650 mmHg 65%
    08:00 +26°C° 0.1 mm 1 mps 651 mmHg 61%
    09:00 +27°C° 0.3 mm 1 mps 651 mmHg 56%
    10:00 +29°C° 0.3 mm 1 mps 651 mmHg 51%
    11:00 +31°C° 0.3 mm 1 mps 652 mmHg 46%
    12:00 +31°C° 0.6 mm 2 mps 651 mmHg 45%
    13:00 +31°C° 0.6 mm 2 mps 651 mmHg 43%
    14:00 +31°C° 0.6 mm 2 mps 650 mmHg 42%
    15:00 +31°C° 0.2 mm 2 mps 650 mmHg 45%
    16:00 +30°C° 0.2 mm 3 mps 649 mmHg 47%
    17:00 +29°C° 0.2 mm 3 mps 649 mmHg 50%
    18:00 +28°C° 0.2 mm 2 mps 649 mmHg 58%
    19:00 +26°C° 0.2 mm 1 mps 649 mmHg 67%
    20:00 +24°C° 0.2 mm 1 mps 649 mmHg 75%
    21:00 +24°C° 0.1 mm 1 mps 649 mmHg 75%
    22:00 +23°C° 0.1 mm 1 mps 650 mmHg 75%
    23:00 +23°C° 0.1 mm 1 mps 650 mmHg 75%

    18 December, Tuesday

    Time Temperature Precipitation Wind Pressure Humidity
    00:00 +23°C° 0 mm 1 mps 650 mmHg 75%
    01:00 +23°C° 0 mm 1 mps 650 mmHg 75%
    02:00 +23°C° 0 mm 1 mps 649 mmHg 75%
    03:00 +21°C° 0.2 mm 2 mps 650 mmHg 76%
    04:00 +21°C° 0.2 mm 2 mps 650 mmHg 78%
    05:00 +21°C° 0.2 mm 2 mps 650 mmHg 79%
    06:00 +21°C° 0.9 mm 2 mps 651 mmHg 78%
    07:00 +21°C° 0.9 mm 2 mps 652 mmHg 78%
    08:00 +23°C° 0.9 mm 2 mps 652 mmHg 78%
    09:00 +23°C° 1.2 mm 2 mps 652 mmHg 78%
    10:00 +22°C° 1.2 mm 3 mps 652 mmHg 78%
    11:00 +22°C° 1.2 mm 3 mps 652 mmHg 78%
    12:00 +21°C° 0.8 mm 3 mps 652 mmHg 79%
    13:00 +21°C° 0.8 mm 3 mps 652 mmHg 81%
    14:00 +21°C° 0.8 mm 3 mps 651 mmHg 82%
    15:00 +21°C° 0.4 mm 2 mps 651 mmHg 80%
    16:00 +21°C° 0.4 mm 2 mps 651 mmHg 78%
    17:00 +21°C° 0.4 mm 2 mps 651 mmHg 77%
    18:00 +21°C° 0.9 mm 1 mps 651 mmHg 79%
    19:00 +21°C° 0.9 mm 1 mps 651 mmHg 81%
    20:00 +20°C° 0.9 mm 1 mps 652 mmHg 84%
    21:00 +20°C° 0.3 mm 1 mps 652 mmHg 84%
    22:00 +18°C° 0.3 mm 0 mps 652 mmHg 83%
    23:00 +18°C° 0.3 mm 0 mps 652 mmHg 83%

    19 December, Wednesday

    Time Temperature Precipitation Wind Pressure Humidity
    00:00 +18°C° 0 mm 0 mps 651 mmHg 85%
    01:00 +19°C° 0 mm 1 mps 650 mmHg 86%
    02:00 +19°C° 0 mm 1 mps 650 mmHg 88%
    03:00 +19°C° 0 mm 1 mps 649 mmHg 88%
    04:00 +17°C° 0 mm 0 mps 649 mmHg 88%
    05:00 +16°C° 0 mm 0 mps 649 mmHg 88%
    06:00 +20°C° 0 mm 1 mps 650 mmHg 82%
    07:00 +21°C° 0 mm 1 mps 650 mmHg 76%
    08:00 +23°C° 0 mm 1 mps 651 mmHg 70%
    09:00 +24°C° 0 mm 2 mps 651 mmHg 63%
    10:00 +26°C° 0 mm 2 mps 651 mmHg 56%
    11:00 +28°C° 0 mm 2 mps 650 mmHg 49%
    12:00 +29°C° 0 mm 3 mps 650 mmHg 47%
    13:00 +29°C° 0 mm 3 mps 649 mmHg 45%
    14:00 +30°C° 0 mm 3 mps 648 mmHg 43%
    15:00 +30°C° 0 mm 3 mps 648 mmHg 46%
    16:00 +29°C° 0 mm 3 mps 647 mmHg 49%
    17:00 +29°C° 0 mm 4 mps 647 mmHg 52%
    18:00 +27°C° 0.1 mm 3 mps 647 mmHg 61%
    19:00 +25°C° 0.1 mm 2 mps 648 mmHg 70%
    20:00 +24°C° 0.1 mm 2 mps 648 mmHg 79%
    21:00 +23°C° 0.3 mm 1 mps 648 mmHg 80%
    22:00 +23°C° 0.3 mm 1 mps 648 mmHg 82%
    23:00 +20°C° 0.3 mm 0 mps 648 mmHg 84%

    20 December, Thursday

    Time Temperature Precipitation Wind Pressure Humidity
    00:00 +20°C° 0.2 mm 0 mps 648 mmHg 83%
    01:00 +19°C° 0.2 mm 0 mps 648 mmHg 83%
    02:00 +19°C° 0.2 mm 0 mps 648 mmHg 82%
    03:00 +21°C° 0 mm 1 mps 648 mmHg 80%
    04:00 +21°C° 0 mm 1 mps 648 mmHg 79%
    05:00 +20°C° 0 mm 1 mps 649 mmHg 78%
    06:00 +22°C° 0.1 mm 1 mps 650 mmHg 73%
    07:00 +23°C° 0.1 mm 2 mps 651 mmHg 68%
    08:00 +25°C° 0.1 mm 2 mps 652 mmHg 63%
    09:00 +25°C° 1 mm 3 mps 652 mmHg 63%
    10:00 +25°C° 1 mm 3 mps 652 mmHg 62%
    11:00 +25°C° 1 mm 4 mps 652 mmHg 62%
    12:00 +26°C° 0.5 mm 4 mps 652 mmHg 59%
    13:00 +27°C° 0.5 mm 4 mps 651 mmHg 56%
    14:00 +27°C° 0.5 mm 4 mps 651 mmHg 54%
    15:00 +26°C° 0.4 mm 4 mps 650 mmHg 58%
    16:00 +25°C° 0.4 mm 4 mps 649 mmHg 63%
    17:00 +23°C° 0.4 mm 4 mps 649 mmHg 67%
    18:00 +22°C° 0.3 mm 3 mps 649 mmHg 73%
    19:00 +21°C° 0.3 mm 2 mps 650 mmHg 79%
    20:00 +19°C° 0.3 mm 2 mps 650 mmHg 85%
    21:00 +19°C° 0.1 mm 2 mps 650 mmHg 85%
    22:00 +20°C° 0.1 mm 1 mps 651 mmHg 85%
    23:00 +19°C° 0.1 mm 1 mps 651 mmHg 84%
    Show more